SCP
0 0 0 0 0 0 0 0 0 0 0 0 0 0 0 0 0 0 0 0 0 0 0 0 0 0 0 0 0 0 0 0 0 0 0 0 0 0 0 0 0 0 0 0
0 0 0 0 0 0 0 0 0 0 0 0 0 0 0 0 0 0 0 0 0 0 0 0 0 0 0 0 0 0 0 0 0 0 0 0 0 0 0 0 0 0 0 0
0 0 0 0 0 0 0 0 0 0 0 0 0 0 0 0 0 0 0 0 0 0 0 0 0 0 0 0 0 0 0 0 0 0 0 0 0 0 0 0 0 0 0 0
0 0 0 0 0 0 0 0 0 0 0 0 0 0 0 0 0 0 0 0 0 0 0 0 0 0 0 0 0 0 0 0 0 0 0 0 0 0 0 0 0 0 0 0
0 0 0 0 0 0 0 0 0 0 0 0 0 0 0 0 0 0 0 0 0 0 0 0 0 0 0 0 0 0 0 0 0 0 0 0 0 0 0 0 0 0 0 0
0 0 0 0 0 0 0 0 0 0 0 0 0 0 0 0 0 0 0 0 0 0 0 0 0 0 0 0 0 0 0 0 0 0 0 0 0 0 0 0 0 0 0 0
0 0 0 0 0 0 0 0 0 0 0 0 0 0 0 0 0 0 0 0 0 0 0 0 0 0 0 0 0 0 0 0 0 0 0 0 0 0 0 0 0 0 0 0
0 0 0 0 0 0 0 0 0 0 0 0 0 0 0 0 0 0 0 0 0 0 0 0 0 0 0 0 0 0 0 0 0 0 0 0 0 0 0 0 0 0 0 0
0 0 0 0 0 0 0 0 0 0 0 0 0 0 0 0 0 0 0 0 0 0 0 0 0 0 0 0 0 0 0 0 0 0 0 0 0 0 0 0 0 0 0 0
0 0 0 0 0 0 0 0 0 0 0 0 0 0 0 0 0 0 0 0 0 0 0 0 0 0 0 0 0 0 0 0 0 0 0 0 0 0 0 0 0 0 0 0
0 0 0 0 0 0 0 0 0 0 0 0 0 0 0 0 0 0 0 0 0 0 0 0 0 0 0 0 0 0 0 0 0 0 0 0 0 0 0 0 0 0 0 0
0 0 0 0 0 0 0 0 0 0 0 0 0 0 0 0 0 0 0 0 0 0 0 0 0 0 0 0 0 0 0 0 0 0 0 0 0 0 0 0 0 0 0 0
0 0 0 0 0 0 0 0 0 0 0 0 0 0 0 0 0 0 0 0 0 0 0 0 0 0 0 0 0 0 0 0 0 0 0 0 0 0 0 0 0 0 0 0
0 0 0 0 0 0 0 0 0 0 0 0 0 0 0 0 0 0 0 0 0 0 0 0 0 0 0 0 0 0 0 0 0 0 0 0 0 0 0 0 0 0 0 0
0 0 0 0 0 0 0 0 0 0 0 0 0 0 0 0 0 0 0 0 0 0 0 0 0 0 0 0 0 0 0 0 0 0 0 0 0 0 0 0 0 0 0 0
0 0 0 0 0 0 0 0 0 0 0 0 0 0 0 0 0 0 0 0 0 0 0 0 0 0 0 0 0 0 0 0 0 0 0 0 0 0 0 0 0 0 0 0
0 0 0 0 0 0 0 0 0 0 0 0 0 0 0 0 0 0 0 0 0 0 0 0 0 0 0 0 0 0 0 0 0 0 0 0 0 0 0 0 0 0 0 0
0 0 0 0 0 0 0 0 0 0 0 0 0 0 0 0 0 0 0 0 0 0 0 0 0 0 0 0 0 0 0 0 0 0 0 0 0 0 0 0 0 0 0 0
0 0 0 0 0 0 0 0 0 0 0 0 0 0 0 0 0 0 0 0 0 0 0 0 0 0 0 0 0 0 0 0 0 0 0 0 0 0 0 0 0 0 0 0
0 0 0 0 0 0 0 0 0 0 0 0 0 0 0 0 0 0 0 0 0 0 0 0 0 0 0 0 0 0 0 0 0 0 0 0 0 0 0 0 0 0 0 0
0 0 0 0 0 0 0 0 0 0 0 0 0 0 0 0 0 0 0 0 0 0 0 0 0 0 0 0 0 0 0 0 0 0 0 0 0 0 0 0 0 0 0 0
0 0 0 0 0 0 0 0 0 0 0 0 0 0 0 0 0 0 0 0 0 0 0 0 0 0 0 0 0 0 0 0 0 0 0 0 0 0 0 0 0 0 0 0
0 0 0 0 0 0 0 0 0 0 0 0 0 0 0 0 0 0 0 0 0 0 0 0 0 0 0 0 0 0 0 0 0 0 0 0 0 0 0 0 0 0 0 0
0 0 0 0 0 0 0 0 0 0 0 0 0 0 0 0 0 0 0 0 0 0 0 0 0 0 0 0 0 0 0 0 0 0 0 0 0 0 0 0 0 0 0 0
0 0 0 0 0 0 0 0 0 0 0 0 0 0 0 0 0 0 0 0 0 0 0 0 0 0 0 0 0 0 0 0 0 0 0 0 0 0 0 0 0 0 0 0
0 0 0 0 0 0 0 0 0 0 0 0 0 0 0 0 0 0 0 0 0 0 0 0 0 0 0 0 0 0 0 0 0 0 0 0 0 0 0 0 0 0 0 0
0 0 0 0 0 0 0 0 0 0 0 0 0 0 0 0 0 0 0 0 0 0 0 0 0 0 0 0 0 0 0 0 0 0 0 0 0 0 0 0 0 0 0 0
Wind_Speed
1 6 10 10 10 10 8 4 2 1 3 1 3 4 5 5 6 5 5 5 6 6 6 7 7 7 8 8 8 8 8 8 9 9 8 8 8 8 7 7 7 6 6 6
4 8 12 12 11 8 6 5 3 3 2 3 4 4 5 7 6 5 6 7 8 8 8 8 8 8 8 8 9 8 8 9 9 8 8 8 8 7 7 7 7 6 6 6
3 1 5 8 8 7 5 5 4 2 4 6 6 7 7 7 6 7 9 9 9 9 8 9 9 9 9 9 8 8 8 9 8 8 8 8 8 7 7 7 7 6 7 7
2 6 4 1 2 5 4 4 3 1 5 6 7 8 7 7 7 9 10 10 10 9 9 9 8 8 8 8 7 8 8 8 8 8 8 8 7 7 7 6 6 6 7 7
3 2 2 2 6 5 2 2 2 4 7 8 7 6 6 8 8 10 10 10 10 9 10 9 9 8 8 7 8 8 8 8 8 8 8 7 7 8 7 6 6 6 6 7
4 2 1 3 7 5 3 2 4 6 7 8 8 8 8 8 9 9 10 9 9 9 9 9 9 8 8 8 8 9 9 8 8 8 8 8 8 8 7 6 7 6 7 7
3 2 1 4 5 5 5 7 8 6 7 7 7 8 10 10 9 9 10 10 10 10 9 10 10 9 9 9 10 9 9 8 8 8 8 8 7 6 6 6 6 6 6 6
3 3 4 5 4 3 5 6 6 6 6 7 9 10 9 9 10 11 11 11 10 10 11 11 10 10 10 11 10 9 9 9 8 8 8 8 5 5 5 5 5 5 5 5
5 4 5 1 1 3 3 4 5 6 8 8 8 8 9 9 10 10 11 11 11 12 13 12 10 10 12 12 10 10 9 9 8 8 7 6 6 5 5 4 4 4 4 4
2 0 1 1 3 3 3 4 5 6 7 7 8 9 9 10 10 11 11 12 12 13 13 14 13 12 11 12 10 10 10 9 7 7 7 6 4 4 4 4 4 4 4 4
0 3 3 5 5 4 5 6 6 7 6 7 8 8 9 10 11 12 12 12 12 13 14 15 14 13 13 12 10 9 9 8 7 6 6 5 5 4 5 5 5 5 4 4
4 5 3 5 5 4 5 6 6 7 8 8 7 9 10 11 11 11 13 13 14 15 15 15 14 14 13 11 9 8 8 7 5 4 4 4 3 4 5 5 7 8 8 5
5 3 2 3 4 5 5 6 6 7 7 8 8 8 10 11 11 12 14 15 16 16 16 15 14 14 12 10 8 7 7 6 4 4 3 3 3 3 3 3 3 3 5 6
2 2 2 3 4 5 5 6 6 7 7 7 8 10 10 11 12 14 15 16 16 16 15 14 14 13 12 10 8 7 6 6 5 3 3 3 3 3 2 2 1 1 1 2
2 3 1 2 4 5 5 5 6 7 8 8 8 10 11 12 14 15 15 15 15 15 15 14 14 13 12 10 7 7 5 4 3 2 2 2 2 2 2 2 1 1 1 3
3 4 4 4 5 5 5 5 6 8 8 8 9 11 11 12 13 14 14 15 15 16 15 14 14 13 11 9 8 6 4 7 4 2 2 2 1 1 1 1 2 2 3 3
3 2 2 3 4 4 5 5 6 7 7 8 10 10 11 12 13 14 15 16 14 13 12 12 13 12 11 9 8 5 4 5 6 3 1 1 1 1 1 1 2 2 3 4
5 3 3 2 2 3 5 6 6 7 6 7 9 10 11 13 14 15 15 15 14 14 13 13 13 13 10 9 7 5 4 3 3 2 2 1 1 1 1 1 2 3 2 3
5 4 3 3 2 2 4 5 6 6 6 7 8 9 10 11 12 13 14 14 14 14 15 16 18 13 10 10 11 5 4 4 3 2 1 1 1 1 1 1 2 2 3 3
4 4 3 3 3 3 4 5 5 5 5 6 8 9 11 12 13 13 13 11 10 11 14 16 14 10 10 10 11 5 5 4 3 2 2 1 1 1 1 1 2 3 3 3
4 3 2 2 3 4 4 4 4 5 5 6 7 9 10 11 12 11 11 11 13 15 16 15 11 10 9 9 9 5 5 4 4 3 3 2 2 2 2 2 3 3 3 3
3 2 1 1 2 4 4 3 3 4 5 6 7 8 10 11 12 11 10 8 12 17 13 9 10 14 14 10 5 5 5 5 4 4 3 3 3 3 3 3 3 3 2 2
3 3 1 1 2 2 3 3 3 3 4 6 7 8 9 9 8 9 10 10 11 17 12 9 16 20 17 9 6 6 6 6 5 4 4 4 3 3 3 3 3 3 2 2
4 3 2 1 0 2 2 3 2 2 3 4 5 7 7 7 7 7 7 12 16 16 10 12 18 19 14 8 8 7 7 6 6 5 4 4 4 4 3 3 3 3 3 3
5 3 2 1 1 0 1 1 2 3 4 4 6 7 6 5 6 8 9 11 15 14 10 13 17 17 11 9 8 8 7 7 6 5 5 4 4 4 4 4 4 4 4 3
5 4 3 3 3 2 1 1 1 2 3 4 5 5 6 6 7 7 7 10 13 13 11 10 11 11 9 9 9 9 8 8 8 7 6 6 6 5 4 5 6 5 4 4
4 3 3 2 1 2 2 1 1 1 2 3 4 5 6 6 6 7 9 9 9 9 9 9 9 9 10 10 9 9 9 8 7 7 7 7 6 6 6 7 6 5 6 6
Wind_Direction
62 90 83 68 53 54 62 76 96 104 119 4 331 331 325 322 320 330 330 320 304 287 277 275 274 272 268 266 264 258 251 246 245 245 245 246 247 248 248 248 250 247 255 260
47 98 87 66 46 41 43 42 59 82 69 321 316 329 326 321 316 311 300 293 287 283 280 275 271 267 265 264 262 257 252 251 250 248 246 245 246 246 247 247 248 245 245 249
334 281 65 36 16 33 44 33 66 50 303 306 321 322 309 304 297 292 293 291 287 282 272 268 265 262 263 261 262 259 257 258 255 248 245 247 249 246 239 239 237 241 245 245
21 38 57 212 17 42 98 86 57 347 299 301 295 289 285 291 293 296 296 293 288 280 276 273 271 272 272 272 270 266 264 262 259 254 248 243 243 243 239 234 231 236 243 244
65 63 132 346 -0 350 316 213 33 344 323 315 305 309 293 284 286 288 290 289 286 284 283 284 284 283 284 281 278 275 272 269 266 261 259 251 244 244 241 234 235 236 239 242
54 37 229 292 315 321 2 274 332 345 323 313 326 325 295 295 295 297 298 299 300 300 299 298 294 291 289 287 285 280 278 275 273 269 263 257 249 245 242 235 237 240 242 241
50 27 255 306 325 32 51 280 299 304 305 309 303 278 287 306 310 308 308 309 310 308 304 298 295 293 289 288 283 280 281 280 276 270 263 257 252 248 242 240 241 242 247 250
67 26 288 323 29 45 255 264 288 298 301 300 294 295 306 315 316 318 317 315 312 308 303 299 298 295 291 287 283 280 278 277 275 271 270 275 251 248 245 240 244 244 245 258
167 202 228 236 151 246 248 289 297 301 306 310 316 316 318 317 317 315 314 313 312 310 308 306 300 293 289 288 287 285 280 275 272 271 267 262 252 248 249 241 238 241 233 241
83 202 224 83 360 339 332 316 311 316 321 332 326 321 321 319 318 318 317 316 314 313 312 310 306 299 290 289 286 284 282 277 272 268 265 261 253 244 239 235 232 231 225 228
355 309 328 336 335 327 335 338 335 332 333 333 329 324 320 320 321 321 319 316 315 315 313 312 312 308 303 296 290 286 283 277 272 263 258 260 254 245 241 233 215 210 216 208
222 240 230 280 299 334 351 340 336 340 337 332 330 324 325 324 321 319 319 320 321 319 317 316 315 313 311 305 296 291 289 281 271 262 257 253 256 276 264 249 246 235 226 208
186 204 196 284 330 347 348 345 345 345 338 332 330 329 329 324 320 322 324 325 325 324 322 319 317 314 313 312 304 296 288 284 274 264 258 252 246 249 275 290 279 256 232 212
140 100 16 343 336 345 352 347 346 341 334 331 330 330 330 325 326 329 328 326 326 325 324 324 324 323 320 318 312 305 298 295 289 264 254 250 249 245 241 239 269 334 335 195
82 94 94 3 4 359 351 348 347 337 333 335 333 333 334 332 330 329 327 327 327 328 330 332 332 331 330 329 324 315 310 303 290 272 262 255 246 247 239 216 185 152 95 78
81 57 47 30 8 353 351 348 341 333 335 335 336 335 334 331 327 327 329 331 332 332 332 333 334 332 331 332 330 323 314 316 320 293 279 269 251 232 207 182 166 149 145 143
94 52 31 15 1 354 346 337 333 330 333 336 334 334 335 334 334 335 334 333 331 327 329 333 333 330 331 332 330 323 319 320 325 317 290 271 247 200 174 158 153 153 160 167
123 118 109 74 19 349 339 334 331 332 333 329 332 338 339 338 337 335 332 331 333 335 339 338 336 334 333 333 333 325 321 320 321 322 327 357 98 129 126 128 146 149 141 142
108 97 78 54 29 358 333 325 325 330 332 334 339 340 336 334 334 332 332 334 340 342 340 337 334 337 335 335 341 330 335 342 346 350 10 49 73 100 118 120 130 138 135 132
109 98 76 38 10 349 327 323 332 338 336 339 342 342 341 338 336 335 335 335 339 337 331 332 334 337 337 336 342 338 346 352 352 352 10 38 81 98 117 122 121 125 129 134
122 106 76 23 344 334 331 333 346 345 340 345 346 341 336 333 335 337 339 340 339 339 336 334 339 341 339 337 340 345 350 357 3 11 27 44 68 85 98 105 109 118 125 132
145 139 115 338 333 326 327 341 356 353 350 347 343 341 341 340 339 339 337 336 333 335 338 341 345 344 344 344 351 355 359 5 13 24 36 44 58 70 82 95 107 119 125 130
168 172 189 258 292 311 339 356 1 0 355 347 344 343 340 335 335 341 340 338 338 337 340 345 344 346 350 356 359 5 11 16 21 26 36 45 54 65 76 83 89 101 109 110
176 183 201 229 7 26 1 340 351 358 353 345 342 341 339 339 339 341 331 332 341 342 346 347 349 352 357 6 8 12 16 18 21 26 36 44 48 53 57 61 66 69 75 81
179 179 173 144 105 281 299 343 6 4 358 347 343 343 341 340 337 333 336 341 347 351 351 353 356 358 6 9 12 13 14 15 19 27 40 47 49 51 49 48 50 51 51 54
173 172 179 178 175 171 140 79 34 357 353 349 343 342 343 344 344 343 344 347 351 354 358 358 360 3 8 11 14 15 15 14 20 28 35 42 50 56 56 52 49 45 43 45
166 159 148 136 142 133 125 114 93 17 359 355 344 341 346 349 351 352 353 354 356 359 360 2 4 7 11 14 16 17 17 17 21 26 32 39 46 49 50 53 52 52 53 54